Tracking 28799 objects as of 18-Apr-2024
HD Live streaming from Space Station
objects crossing your sky now

JILIN-01 GAOFEN 2B

Track JILIN-01 GAOFEN 2B now!
10-day predictions


NORAD ID: 44836
Int'l Code: 2019-086A
Perigee: 513.7 km
Apogee: 524.9 km
Inclination: 97.6 °
Period: 94.9 minutes
Semi major axis: 6890 km
RCS: Unknown
Launch date: December 7, 2019
Source: People's Republic of China (PRC)
Launch site: Taiyaun Space Center, China (TSC)
Your satellite tracking list
Your tracking list is empty




NASA's NSSDC Master Catalog

Two Line Element Set (TLE):
1 44836U 19086A   24108.93831440  .00017991  00000-0  88844-3 0  9998
2 44836  97.5820 174.1756 0008077 203.8831 156.2029 15.17906139240661
Source of the keplerian elements: AFSPC